Zurück zum Katalog

ATLAS 5 CENTAUR DEB

AktivHEO
NORAD 55850·DEBRIS·🇺🇸 United States

Gestartet Oct 17, 2018 von Cape Canaveral Space Force Station

Loading…

Nächste Überflüge (nächste 24 Stunden)

TLE

AlterndSource: Space-Track

Epoche: Aug 29, 2026, 13:48 UTC

1 55850U 18079HC  26241.57540005 -.00000142  00000-0  00000-0 0  9997
2 55850  13.7454  20.6537 4908658 341.7305   5.3780  1.79148153 26319

Verfolge ATLAS 5 CENTAUR DEB in Echtzeit mit AllMySat

Download on the App Store